www.pogodaiklimat.ru

Погода и климат >> Архив погоды >> Испания >> Madrid


АРХИВ ПОГОДЫ в Madrid

Время (UTC), дата Ветер
(напр.,м/с)
 
Видим.   Явления Облачность Т
(С)
Тd
(С)
f
(%)
Тe
(С)
Тes
(С)
Комфортность P
(гПа)
Po
(гПа)
Тmin
(С)
Tmax
(С)
R
(мм)
R24
(мм)
S
(см)
22 10.01 З 6 30 км ясно +6.5 -0.6 60 +2 +2 тепло 1021.9 952.4
23 10.01 З 6 30 км ясно +6.2 -0.8 61 +2 +2 по сезону 1022.5 953.0
00 11.01 З 2 30 км ясно +5.2 -0.6 66 +3 +3 по сезону 1023.2 953.4
01 11.01 Ю 3 30 км 1/1 1000 м
[Sc]
+4.6 -0.9 67 +2 +2 тепло 1022.9 952.9
02 11.01 Ю 4 30 км н/о +3.7 -0.8 72 -0 -0 по сезону 1022.9 952.7
03 11.01 ЮВ 3 30 км 5/3 1000 м
[Sc Ci sp]
+3.3 -0.3 77 -1 -1 по сезону 1022.7 952.4
04 11.01 Ю 4 30 км 4/4 1000 м
[Sc]
+3.4 -0.1 78 -1 -1 по сезону 1022.2 952.0
05 11.01 Ю 3 30 км 5/5 300 м
[Sc]
+3.0 +0.2 82 -1 -1 по сезону 1022.1 951.8
06 11.01 З 3 30 км 5/5 1000 м
[Sc]
+4.0 +0.7 79 0 0 по сезону 1022.4 952.3 +2.9
07 11.01 В 2 30 км 4/4 1500 м
[Sc]
+2.7 +0.2 84 0 0 по сезону 1023.4 952.9
08 11.01 ЮЗ 4 26 км 5/5 600 м
[Sc]
+3.7 +1.3 84 -1 -0 по сезону 1023.3 953.1
09 11.01 З 7 30 км 5/5 1000 м
[Sc]
+6.2 +1.1 70 +1 +2 по сезону 1023.4 953.8
10 11.01 СЗ 5 30 км н/о +7.2 +1.3 66 +3 +3 по сезону 1023.7 954.3
11 11.01 З 7 30 км 1/1 1000 м
[Sc]
+8.1 +0.4 58 +4 +5 по сезону 1023.2 954.0
12 11.01 З 8 30 км 3/3 600 м
[Sc]
+8.5 -0.8 52 +4 +5 прохладно 1023.0 953.9
13 11.01 СЗ 9 30 км 3/3 1000 м
[Cu hum]
+9.0 -1.4 48 +5 +5 по сезону 1021.8 952.9
14 11.01 З 4 30 км 1/1 1000 м
[Cu hum]
+9.7 -1.4 46 +7 +9 по сезону 1021.8 953.1
15 11.01 З 2 30 км 1/1 1000 м
[Cu hum]
+10.0 -3.3 39 +9 +11 по сезону 1021.3 952.7 0.0
16 11.01 СВ 1 30 км 1/1 1000 м
[Cu hum]
+9.5 -3.0 41 +10 +10 тепло 1022.0 953.2
17 11.01 Ю 1 30 км н/о +8.3 -1.7 49 +8 +8 тепло 1023.1 953.9
18 11.01 Ю 2 30 км 1/1 1000 м
[Cu hum]
+4.9 -2.3 60 +3 +3 прохладно 1024.8 954.8 +10.2
19 11.01 З 5 30 км 4/4 1000 м
[Sc]
+6.6 -1.3 57 +3 +3 по сезону 1024.9 955.3
20 11.01 З 6 30 км 5/5
[Sc]
+6.8 -0.6 59 +3 +3 по сезону 1025.3 955.7
21 11.01 З 6 30 км 5/5 2000 м
[Sc]
+6.6 -1.0 58 +3 +3 по сезону 1025.6 955.9
22 11.01 З 5 30 км 3/3 1500 м
[Sc]
+6.0 -0.7 62 +2 +2 тепло 1025.8 956.0
23 11.01 З 7 30 км 3/3 1500 м
[Sc]
+6.1 -1.0 60 +2 +2 по сезону 1026.2 956.4
00 12.01 З 8 30 км 8/8 1500 м
[Sc]
+5.6 -0.5 65 0 0 по сезону 1026.1 956.2
01 12.01 С 2 30 км 1/1
[Sc]
+4.0 -0.6 72 +1 +1 тепло 1026.4 956.0
02 12.01 С 2 30 км 1/0
[Ci fib]
+3.1 -0.6 77 0 0 по сезону 1027.2 956.5
03 12.01 штиль 0 30 км 1/0
[Ci fib]
+0.9 -1.3 85 -0 -0 по сезону 1028.0 956.7
04 12.01 ЮВ 2 30 км 1/1 300 м
[Frnb]
+0.6 -1.5 86 -3 -3 по сезону 1028.0 956.6
05 12.01 С 2 25 км ясно -1.0 -2.2 92 -5 -5 по сезону 1028.4 956.7
06 12.01 СВ 1 18 км ясно -1.4 -2.3 94 -4 -4 прохладно 1028.8 956.9 -1.4
07 12.01 Ю 2 19 км ясно -1.4 -2.3 94 -5 -5 прохладно 1029.3 957.4
08 12.01 СВ 1 11 км 1/0
[Ci fib]
-1.7 -2.5 94 -4 -4 холодно 1029.4 957.4
09 12.01 штиль 0 16 км 1/0
[Ci fib]
+1.0 -0.4 90 -0 +1 прохладно 1028.9 957.6
10 12.01 В 1 22 км 1/0
[Ci fib]
+3.7 +0.2 78 +2 +6 по сезону 1028.6 958.0
11 12.01 ЮВ 2 22 км 1/0
[Ci fib]
+5.9 +0.6 69 +4 +9 по сезону 1028.0 958.0
12 12.01 ЮВ 2 17 км 1/0
[Ci fib]
+7.4 +0.5 62 +6 +11 по сезону 1026.4 956.9
13 12.01 ЮВ 2 30 км 1/0
[Ci fib]
+8.4 +0.1 56 +7 +12 тепло 1025.2 955.9
14 12.01 Ю 2 30 км 8/0
[Ci sp]
+8.9 +0.5 56 +8 +11 тепло 1024.5 955.4
15 12.01 Ю 1 30 км 9/0
[Cs]
+8.4 +0.6 58 +8 +10 по сезону 1024.3 955.1
16 12.01 Ю 3 30 км 9/0
[Ac As Cs]
+8.2 +1.2 61 +6 +6 по сезону 1024.3 955.1
17 12.01 ЮВ 3 30 км 6/0
[Ac As Ci fib]
+7.6 +1.5 65 +5 +5 по сезону 1024.4 955.0
18 12.01 Ю 2 30 км 6/0
[Ac As Ci fib]
+7.6 +1.4 65 +6 +6 по сезону 1024.6 955.2 +9.3
19 12.01 Ю 2 30 км 6/0
[Ac As Ci fib]
+6.1 +1.1 70 +4 +4 тепло 1024.4 954.7
20 12.01 ЮВ 2 30 км 8/0
[Ac As Ci fib]
+5.2 +1.1 75 +3 +3 по сезону 1024.6 954.7
21 12.01 ЮВ 2 24 км 9/0
[Ac As Cs]
+4.7 +1.0 77 +3 +3 по сезону 1024.6 954.6
22 12.01 В 1 30 км 9/0
[Ac As Cs]
+4.0 +1.2 82 +3 +3 тепло 1024.8 954.6
23 12.01 штиль 0 14 км 9/0
[Ac As Cs]
+2.3 +0.8 90 +1 +1 по сезону 1025.1 954.4
00 13.01 ЮВ 1 9000 м дымка 9/0
[Ac As Cs]
+1.4 +0.4 93 +1 +1 по сезону 1024.9 954.0
01 13.01 С 2 9000 м дымка 10/0
[Ac As Cs]
+1.7 +0.8 94 -1 -1 по сезону 1024.3 953.5
02 13.01 СЗ 2 9000 м дымка 10/0
[Ac As Cs]
+1.1 +0.2 94 -2 -2 по сезону 1023.8 952.9
03 13.01 С 2 9000 м дымка 10/0
[Ac As Cs]
+0.9 +0.1 94 -2 -2 по сезону 1023.4 952.5
04 13.01 С 2 9000 м дымка 10/0
[Ac As Cs]
+0.8 -0.2 93 -2 -2 по сезону 1022.9 952.0
05 13.01 С 2 9000 м дымка 10/0
[Ac As Cs]
+0.2 -0.4 96 -4 -4 по сезону 1022.5 951.4
06 13.01 С 2 9000 м дымка 10/0
[Ac As Cs]
+0.5 -0.3 94 -3 -3 по сезону 1021.9 951.0 +0.1
07 13.01 С 2 12 км 10/0
[Ac As Cs]
+0.1 -0.6 95 -3 -3 по сезону 1021.8 950.8
08 13.01 С 2 8000 м дымка 10/0
[Ac As Cs]
+0.1 -0.5 96 -3 -3 прохладно 1022.0 950.9
09 13.01 С 2 8000 м дымка 10/0
[Ac As Cs]
+0.2 -0.4 96 -3 -2 холодно 1022.0 951.0
10 13.01 С 2 13 км 10/0
[Ac As Cs]
+2.1 +0.7 90 -1 +1 холодно 1021.6 951.1
11 13.01 З 1 17 км 9/0
[Ac As Cs]
+3.9 +1.3 83 +2 +4 прохладно 1020.9 950.9
12 13.01 З 1 21 км 10/3 2000 м
[Sc Ac As Cs]
+5.1 +1.2 76 +4 +6 прохладно 1019.4 949.8
13 13.01 ЮВ 1 7000 м слабый дождь 10/5 300 м
[Sc Ac As Cs]
+4.9 +2.9 87 +4 +5 по сезону 1018.9 949.3
14 13.01 Ю 2 13 км слабый дождь 10/6 300 м
[Sc Ac As Cs]
+4.4 +2.0 84 +2 +2 прохладно 1018.7 949.0
15 13.01 В 1 6000 м слабый дождь 10/6 300 м
[Cu Sc Ac As Cs]
+3.9 +2.8 93 +2 +3 прохладно 1017.9 948.2 3
16 13.01 ЮВ 1 2400 м слабый дождь 10/10 200 м
[Frnb Ac As Cs]
+3.4 +1.9 90 +3 +3 по сезону 1018.6 948.7
17 13.01 Ю 1 4000 м слабый дождь 10/10 200 м
[Frnb Ac As]
+3.1 +1.8 91 +1 +1 прохладно 1018.7 948.7
18 13.01 С 1 н/о дымка {дождь} 9/8 200 м
[Frnb Ac As]
+2.9 +2.2 95 +1 +1 прохладно 1019.2 949.1 +5.2 3
19 13.01 С 1 5000 м дымка {дождь} 10/10 200 м
[Frnb]
+2.4 +1.8 96 +1 +1 по сезону 1019.4 949.2
20 13.01 В 1 4400 м дымка {дождь} 10/10 200 м
[Frnb]
+2.4 +1.8 96 +2 +2 по сезону 1020.0 949.7
21 13.01 З 4 10 км {дождь} 10/10 200 м
[Frnb]
+3.2 +2.0 92 -2 -2 холодно 1019.8 949.7 0.1
22 13.01 ЮЗ 4 9000 м 10/10 100 м
[Frnb]
+3.4 +2.1 91 -1 -1 по сезону 1020.1 950.1
23 13.01 Ю 2 13 км н/о +3.6 +2.3 91 +1 +1 по сезону 1020.5 950.5
00 14.01 Ю 3 15 км {дождь} 10/10 200 м
[Frnb]
+3.6 +2.4 92 -0 -0 по сезону 1020.1 950.1
01 14.01 З 2 15 км 10/10 200 м
[Frnb]
+3.5 +2.5 93 +1 +1 тепло 1020.1 950.1
02 14.01 ЮЗ 2 30 км 10/10 200 м
[Frnb]
+3.6 +2.0 89 +1 +1 по сезону 1019.9 949.9
03 14.01 З 2 30 км 10/10 200 м
[Frnb]
+3.5 +2.1 91 +1 +1 по сезону 1020.0 950.0
04 14.01 С 1 16 км 10/10 200 м
[Frnb Ac As]
+3.2 +2.4 94 +1 +1 тепло 1019.8 949.7
05 14.01 В 1 11 км 10/10 200 м
[Frnb Ac As]
+2.8 +2.0 94 +1 +1 по сезону 1019.5 949.4
06 14.01 С 2 10 км 10/10 200 м
[Frnb Ac As]
+2.6 +2.1 97 -0 -0 по сезону 1019.6 949.4 +2.4
07 14.01 СЗ 1 11 км 10/10 200 м
[Frnb Ac As]
+2.9 +2.4 97 +1 +1 по сезону 1019.7 949.6
08 14.01 СЗ 1 9000 м дымка 10/10 300 м
[Frnb Ac As]
+3.0 +2.3 95 +3 +3 по сезону 1020.2 950.1
09 14.01 С 2 11 км 9/9 100 м
[Frnb Ac As]
+3.7 +2.8 94 +1 +1 по сезону 1020.4 950.4
10 14.01 С 3 12 км 9/9 200 м
[Cu Sc Ac As]
+4.1 +3.1 93 +1 +1 прохладно 1020.7 950.8
11 14.01 СЗ 3 20 км 9/9 200 м
[Cu Sc]
+5.0 +2.8 86 +2 +2 прохладно 1020.5 950.9
12 14.01 С 1 28 км 9/9 200 м
[Cu Sc]
+5.8 +3.2 83 +5 +5 по сезону 1019.9 950.4
13 14.01 С 3 30 км 10/10 300 м
[Cu Sc]
+5.4 +2.5 82 +2 +2 по сезону 1019.7 950.2
14 14.01 С 1 30 км 9/9 300 м
[Cu Sc]
+7.3 +2.9 74 +7 +7 по сезону 1018.9 949.8
15 14.01 С 2 30 км 5/5 600 м
[Cu Sc Ac cuf]
+6.6 +2.0 72 +4 +5 по сезону 1018.7 949.5
16 14.01 С 3 30 км 4/3 600 м
[Cu Sc Ac cuf]
+7.4 +1.9 68 +5 +5 по сезону 1018.9 949.9
17 14.01 СВ 2 30 км 1/1 600 м
[Cu Sc]
+5.8 +2.0 77 +3 +3 по сезону 1019.9 950.4
18 14.01 С 2 30 км 1/1 600 м
[Cu hum]
+3.4 +1.4 87 +1 +1 прохладно 1021.3 951.2 +7.7
19 14.01 С 2 30 км н/о +3.4 +1.9 90 0 0 по сезону 1022.3 952.1
20 14.01 С 3 30 км 9/3 600 м
[Cu Sc Ac As Cs]
+4.0 +2.2 88 0 0 по сезону 1023.0 952.9
21 14.01 С 3 30 км 8/3 600 м
[Sc Ac As Cs]
+4.1 +1.6 84 +1 +1 по сезону 1023.4 953.3
22 14.01 С 3 30 км 5/0
[Ac As Cs]
+3.1 +1.1 87 -1 -1 по сезону 1024.2 953.8
23 14.01 С 2 30 км 3/0
[Ac As Cs]
+1.8 +0.4 90 -1 -1 по сезону 1025.2 954.4
00 15.01 С 1 30 км ясно +0.8 -0.3 92 -1 -1 по сезону 1025.6 954.5
01 15.01 С 2 28 км ясно +0.2 -0.5 95 -3 -3 по сезону 1025.4 954.1
02 15.01 С 2 14 км 1/0
[Ac trans]
-0.3 -1.0 95 -4 -4 по сезону 1025.7 954.3
03 15.01 штиль 0 9000 м дымка 1/0
[Ac trans]
-1.4 -2.0 96 -3 -3 прохладно 1026.7 955.0
04 15.01 З 1 5000 м дымка {туман} 4/0
[Cs]
-1.3 -1.8 96 -4 -4 по сезону 1027.4 955.7
05 15.01 штиль 0 7000 м дымка {туман} 5/0
[Ac trans Cs]
-1.5 -2.0 96 -3 -3 по сезону 1027.6 955.8
06 15.01 З 1 12 км {туман} 6/0
[Ac trans Cs]
-1.7 -2.2 96 -4 -4 прохладно 1028.0 956.1 -1.8
07 15.01 штиль 0 8000 м дымка {туман} 1/0
[Ac trans]
-2.1 -2.7 96 -3 -3 по сезону 1028.4 956.4
08 15.01 С 1 10 км ясно -2.1 -2.6 96 -5 -4 холодно 1029.4 957.3
09 15.01 С 1 14 км 1/0
[Ac lent]
+0.3 -0.2 96 -0 +1 прохладно 1029.8 958.3
10 15.01 Ю 2 28 км 3/0
[Ac lent Ci fib]
+3.3 +1.0 85 +1 +4 прохладно 1029.6 958.8
11 15.01 Ю 2 30 км 1/0
[Ci fib]
+5.2 +0.8 73 +3 +8 прохладно 1029.5 959.2
12 15.01 Ю 2 30 км 1/0
[Ci fib]
+6.9 +0.8 65 +5 +10 по сезону 1027.9 958.2
13 15.01 Ю 3 30 км 4/0
[Ci fib]
+8.4 +1.2 60 +6 +10 по сезону 1026.9 957.5
14 15.01 Ю 4 26 км 4/0
[Ci fib]
+9.2 +1.9 60 +7 +9 по сезону 1026.5 957.4
15 15.01 Ю 3 30 км 5/0
[Cs]
+9.7 +0.7 53 +8 +9 по сезону 1026.0 957.0
16 15.01 ЮЗ 4 30 км 10/0
[Cs]
+9.3 +2.5 62 +7 +7 тепло 1026.5 957.4
17 15.01 Ю 5 30 км 8/0
[Cs]
+8.3 +2.1 65 +5 +5 по сезону 1027.2 957.8
18 15.01 Ю 3 30 км 6/0
[Ac trans Cs]
+7.3 +2.0 69 +5 +5 по сезону 1027.8 958.2 +10.0
19 15.01 Ю 3 30 км 1/0
[Ci sp]
+7.1 +1.9 69 +4 +4 тепло 1028.3 958.6
20 15.01 Ю 3 30 км 1/1
[Cu Sc]
+5.9 +1.6 74 +3 +3 по сезону 1028.9 958.9
21 15.01 Ю 3 30 км н/о +4.9 +1.0 76 +2 +2 по сезону 1029.5 959.2
22 15.01 ЮВ 2 30 км ясно +3.3 +0.6 82 +1 +1 по сезону 1030.3 959.5
23 15.01 ЮВ 2 30 км ясно +2.8 +0.5 85 0 0 по сезону 1030.9 959.9
00 16.01 ЮВ 2 21 км н/о +2.4 +0.1 85 -1 -1 по сезону 1030.6 959.5
01 16.01 ЮВ 2 30 км 5/3 1000 м
[Sc Ci sp]
+2.0 -0.3 85 -1 -1 по сезону 1030.3 959.1
02 16.01 С 2 15 км 5/1 1500 м
[Sc Ac trans Ci sp]
+0.9 -0.4 91 -3 -3 по сезону 1030.6 959.1
03 16.01 С 1 14 км 4/1 1500 м
[Sc Ac trans Ci sp]
+0.7 -0.3 93 -1 -1 по сезону 1030.5 959.1
04 16.01 СЗ 1 10 км 1/1 1500 м
[Sc Ac trans]
-0.1 -0.9 94 -2 -2 по сезону 1030.7 959.0
05 16.01 СЗ 1 30 км 1/1
[Sc Ac trans]
-0.4 -1.1 95 -3 -3 по сезону 1030.6 958.9
06 16.01 СЗ 2 30 км 3/3 2000 м
[Sc Ac trans]
0.0 -0.6 96 -4 -4 прохладно 1030.7 959.1 -0.4
07 16.01 С 2 30 км 3/3 2000 м
[Sc Ac trans]
-0.4 -1.0 96 -4 -4 прохладно 1031.5 959.7
08 16.01 С 1 6000 м 3/3 1500 м
[Sc Ac trans]
-0.5 -0.9 97 -3 -3 прохладно 1031.8 960.0
09 16.01 С 1 11 км дымка н/о +2.0 +1.1 94 +1 +1 по сезону 1032.0 960.7
10 16.01 ЮВ 1 12 км н/о +4.6 +1.3 79 +3 +3 по сезону 1031.7 961.1
11 16.01 Ю 2 20 км 3/3
[St Ci sp]
+6.7 +1.9 71 +5 +8 по сезону 1031.1 961.1
12 16.01 Ю 1 16 км 1/0
[Ci fib]
+8.7 +2.7 66 +8 +14 по сезону 1029.4 959.9
13 16.01 Ю 3 27 км 1/0
[Ac trans Ci sp]
+10.5 +4.1 65 +9 +13 тепло 1027.9 959.0
14 16.01 Ю 3 24 км н/о +12.0 +5.3 64 +11 +11 тепло 1026.4 958.0
15 16.01 Ю 3 30 км 5/0
[Ci fib]
+12.7 +5.8 63 +11 +13 тепло 1025.9 957.7
16 16.01 ЮВ 4 30 км 4/0
[Ci fib]
+12.8 +6.4 65 +11 +12 тепло 1025.5 957.4
17 16.01 ЮВ 3 30 км 1/0
[Ci sp]
+11.5 +6.6 72 +10 +10 тепло 1025.9 957.4
18 16.01 Ю 3 30 км ясно +10.4 +6.1 75 +9 +9 тепло 1026.2 957.4 +12.9
19 16.01 Ю 4 25 км ясно +8.8 +5.7 81 +6 +6 тепло 1026.8 957.6
20 16.01 Ю 5 25 км ясно +8.4 +5.6 83 +5 +5 по сезону 1026.7 957.4
21 16.01 ЮЗ 2 30 км ясно +7.7 +5.0 83 +6 +6 по сезону 1027.4 957.9
22 16.01 С 2 6000 м дымка {туман} ясно +4.3 +3.1 92 +2 +2 тепло 1028.6 958.2
23 16.01 СЗ 2 5000 м дымка {туман} ясно +3.2 +2.4 94 +1 +1 по сезону 1028.6 957.9
00 17.01 С 2 4500 м дымка {туман} ясно +2.4 +1.8 96 -1 -1 по сезону 1029.2 958.2
01 17.01 С 3 4000 м дымка {туман} ясно +1.8 +1.3 96 -2 -2 по сезону 1028.7 957.6
02 17.01 С 1 4000 м дымка {туман} ясно +1.1 +0.5 96 0 0 по сезону 1028.0 956.8
03 17.01 С 2 2500 м дымка {туман} ясно +0.4 -0.1 96 -3 -3 прохладно 1028.0 956.6
04 17.01 С 2 2500 м дымка {туман} 1/1 100 м
[Cu Sc]
+0.5 +0.1 97 -3 -3 по сезону 1028.0 956.6
05 17.01 ЮЗ 2 100 м туман ?/? +1.1 +0.9 99 -2 -2 по сезону 1027.4 956.2
06 17.01 С 1 100 м туман местами ?/? -0.2 -0.4 99 -3 -3 по сезону 1028.0 956.5 -0.2
07 17.01 ЮВ 1 2300 м дымка {туман} 6/6 <50 м
[St]
-0.4 -0.6 99 -3 -3 по сезону 1028.5 956.9
08 17.01 СЗ 1 400 м местами туман поземный 5/5 <50 м
[St]
-0.7 -1.0 98 -3 -3 прохладно 1028.9 957.2
09 17.01 С 3 900 м туман местами 6/6 <50 м
[St]
+0.5 +0.4 99 -4 -3 холодно 1029.0 957.5
10 17.01 СЗ 3 5000 м дымка {туман} 4/4 50 м
[St]
+3.3 +2.8 97 -1 +1 холодно 1028.8 958.1
11 17.01 СЗ 2 12 км {туман} н/о +7.1 +4.6 84 +5 +5 по сезону 1027.9 958.3
12 17.01 З 2 30 км ясно +10.4 +4.8 68 +10 +15 тепло 1026.6 957.8
13 17.01 СЗ 5 30 км ясно +12.5 +4.3 57 +10 +13 тепло 1025.4 957.2
14 17.01 С 4 25 км ясно +13.5 +4.8 56 +12 +15 тепло 1024.6 956.7
15 17.01 С 3 30 км ясно +14.4 +4.3 51 +14 +15 тепло 1024.4 956.7 0.0
16 17.01 С 6 30 км ясно +13.6 +2.8 48 +12 +12 тепло 1024.8 956.9
17 17.01 С 5 30 км ясно +12.1 +2.0 50 +10 +10 тепло 1025.6 957.2
18 17.01 С 2 30 км ясно +9.5 +2.2 60 +8 +8 по сезону 1026.8 957.7 +14.6
19 17.01 С 3 30 км ясно +8.8 +2.3 64 +7 +7 тепло 1027.1 957.8
20 17.01 С 1 30 км ясно +7.0 +1.8 69 +6 +6 тепло 1027.6 957.9
21 17.01 С 3 30 км ясно +5.9 +1.7 74 +3 +3 по сезону 1027.9 957.9
22 17.01 СЗ 2 30 км ясно +5.2 +1.4 76 +3 +3 тепло 1028.4 958.2

 

Местоположение метеостанции Madrid (Испания): широта 40.45 долгота -3.55 высота над уровнем моря 582 м.

В архиве по умолчанию представлена погода в Madrid за последнюю неделю. Архивные данные за месяц целиком и за предыдущие месяцы, начиная с января 2011 года, Вы можете получить, выбрав интересующий диапазон дат из раскрывающегося списка и нажав кнопку "Ввод!".

Внимание! Время в таблицах - всемирное. Для получения местного времени необходимо прибавить поправку, которая в Madrid равна 1 ч.

Смотрите также архив погоды в соседних городах и на ближайших метеорологических станциях:

Погода в Madrid Retiro (Испания) (12 км)
Погода в Madrid Universitaria (Испания) (14 км)
Погода в Madrid Airport (Испания) (22 км)
Погода в Madri-Colmenar (Испания) (33 км)
Погода в Guadalajara (Испания) (39 км)
Погода в Navacerrada (Испания) (54 км)
Погода в Segovia (Испания) (74 км)
Погода в Toledo (Испания) (76 км)
Погода в Avila (Испания) (100 км)
Погода в Cuenca (Испания) (128 км)

Пояснения к столбцам:

Ветер - указаны скорость ветра в м/с - средняя за 10 мин, порывы в срок и между сроками (в фигурных скобках) и направление, откуда дует ветер: С - северный, СВ - северо-восточный, В - восточный, ЮВ - юго-восточный, Ю - южный, ЮЗ - юго-западный, З - западный, СЗ - северо-западный.
Видимость - горизонтальная дальность видимости в метрах или километрах. При видимости от 1 до 10 км при отсутствии осадков обычно наблюдается дымка, при ухудшении видимости до 1 км и менее - туман. В сухую погоду видимость может ухудшаться дымом, пылью или мглою.
Явления - указаны атмосферные явления, наблюдавшиеся в срок или в последний час перед сроком; фигурными скобками обозначены явления, наблюдавшиеся между сроками (за 1-3 часа до срока); квадратными скобками обозначены град или гололедные отложения с указанием их диаметра в мм.
Облачность - указаны через наклонную черту общая и нижняя облачность в баллах и высота нижней границы облаков в метрах; квадратными скобками обозначены формы облаков: Ci - перистые, Cs - перисто-слоистые, Cc - перисто-кучевые, Ac - высококучевые, As - высокослоистые, Sc - слоисто-кучевые, Ns - слоисто-дождевые, Cu - кучевые, Cb - кучево-дождевые. Подробнее классификацию облаков см. в Атласе облаков (PDF).
T - Температура воздуха - температура, измеренная на высоте 2 м над землей.
Td - Температура точки росы - температура, при понижении до которой содержащийся в воздухе водяной пар достигнет насыщения.
f - Относительная влажность воздуха - влажноcть воздуха, измеренная на высоте 2 м над землей.
Te - Эффективная температура - температура, которую ощущает одетый по сезону человек в тени. Характеристика душности погоды. При расчете учитывается влияние влажности воздуха и скорости ветра на теплоощущения человека.
Tes - Эффективная температура на солнце - температура, которую ощущает человек, с поправкой на солнечный нагрев. Характеристика знойности погоды. Зависит от высоты солнца над горизонтом, облачности и скорости ветра. Ночью, в пасмурную погоду, а также при ветре 12 м/с и более поправка равна нулю.
P - Атмосферное давление - приведенное к уровню моря атмосферное давление.
Po - Атмосферное давление - измеренное на уровне метеостанции атмосферное давление.
Tmin - Минимальная температура - минимум температуры воздуха на высоте 2 м над землей.
Tmax - Максимальная температура - максимум температуры воздуха на высоте 2 м над землей.
R - Количество осадков - Количество выпавших осадков за период времени, мм. При наведении курсора мыши на число - период времени, за который выпало указанное количество осадков.
R24 - Количество осадков - Количество выпавших осадков за 24 часа, мм.
S - Снежный покров - Высота снежного покрова, см. При наведении курсора мыши на число - состояние снежного покрова и степень покрытия местности в баллах.